Location: Unspecified
(0.0000°N, 0.0000°E)
Time: 00:00:33
(UTC+00:00)

Tiangong - Visible Passes

Search period start: 25 June 2024 00:00
Search period end: 05 July 2024 00:00
Orbit: 377 x 384 km, 41.5° (Epoch: 24 June)

Date Brightness Start Highest point End Pass type
(mag) Time Alt. Az. Time Alt. Az. Time Alt. Az.
25 Jun -0.2 19:48:58 10° NW 19:50:42 29° WNW 19:50:42 29° WNW visible
26 Jun -1.3 18:48:04 10° NNW 18:50:59 36° NE 18:52:50 18° ESE visible
27 Jun -0.4 19:23:46 10° W 19:26:23 24° SW 19:27:04 22° SSW visible
28 Jun -2.0 18:22:02 10° NW 18:25:09 77° SW 18:28:17 10° SE visible
29 Jun 0.7 18:59:42 10° WSW 19:00:27 11° SW 19:01:13 10° SSW visible
30 Jun 0.1 04:51:39 14° S 04:53:13 19° SE 04:55:33 10° E visible
01 Jul -1.7 05:25:40 12° WSW 05:28:22 47° NW 05:31:23 10° NNE visible
02 Jul -1.1 04:27:29 42° E 04:27:29 42° E 04:29:56 10° ENE visible
03 Jul -0.4 05:01:18 18° WNW 05:01:55 19° NW 05:04:13 10° N visible
04 Jul 1.0 04:02:53 13° NNE 04:02:53 13° NNE 04:03:21 10° NE visible
